Content
SEND FEEDBACK

Daily
Averages
Monthly
Summary
Philippines

TANQUE, PHILIPPINES


Home > Asia > Philippines
Elevation: 43 feet     Latitude: 14 34N     Longitude: 120 58E

WEATHER
 
SELECT A DAY
Number of Records: 172,634;   Date Range: 7/1/96 - 8/30/14
 
SHARE

PRINT THIS DATA

[ ← Previous Day ]
WEATHER ALMANAC - NOVEMBER 16, 2013
[ Next Day → ]
[ °C ]   °F
Weather ElementAverageHighLow
Temperature83.9 °F90 °F (2:00 pm)77 °F (3:00 am)
Dewpoint72.9 °F77 °F (3:00 am)69.8 °F (9:00 am)
Humidity68.9 %100 % (3:00 am)46 % (2:00 pm)
Barometer29.87 in29.92 in (8:00 am)29.80 in (2:00 pm)
Wind Speed6.4 mph12.7 mph (2:00 pm)
Weather ElementAverage
Visibility6.1 mi
Wind DirectionESE (102.3 °)

Weather ElementTotal
Precipitation---
Cooling Degree Days18.5 (Base 65)
Growing Degree Days33.5 (Base 50)
Averaged from 31 records on November 16, 2013
WEATHER CONDITIONS BREAKOUT
WIND DIRECTION BREAKOUT
WEATHER BY HOUR - NOVEMBER 16, 2013
[ °C ]   °F
Local TimeTemperatureDewpointHumidityBarometerVisibilityWind DirectionWind SpeedGust SpeedPrecipitationEventsConditions
1:00 AM80.6 °F75.2 °F84 %29.89 in6.2 miESE (110°)4.6 mphPartly Cloudy
2:00 AM80.0 °F75.0 °F79 %29.89 in6.0 miESE (110°)4.5 mphHaze
2:00 AM80.6 °F75.2 °F84 %29.89 in6.2 miESE (120°)4.6 mphPartly Cloudy
3:00 AM77.0 °F77.0 °F100 %29.86 in6.2 miNE (50°)4.6 mphPartly Cloudy
4:00 AM78.8 °F75.2 °F89 %29.86 in6.2 miVariable2.3 mphScattered Clouds
5:00 AM78.0 °F75.0 °F86 %29.87 in6.0 miCalmHaze
5:00 AM78.8 °F75.2 °F89 %29.86 in6.2 miCalmPartly Cloudy
6:00 AM78.8 °F75.2 °F89 %29.89 in6.2 miSouth (170°)3.5 mphScattered Clouds
7:00 AM80.6 °F75.2 °F84 %29.89 in6.2 miEast (100°)2.3 mphPartly Cloudy
8:00 AM84.0 °F71.0 °F58 %29.92 in6.0 miESE (120°)2.2 mphPartly Cloudy
8:00 AM84.2 °F71.6 °F66 %29.92 in6.2 miESE (120°)2.3 mphPartly Cloudy
9:00 AM86.0 °F69.8 °F58 %29.92 in6.2 miEast (80°)5.8 mphPartly Cloudy
10:00 AM87.8 °F69.8 °F55 %29.92 in6.2 miEast (100°)6.9 mphPartly Cloudy
11:00 AM89.0 °F72.0 °F49 %29.91 in6.0 miESE (120°)6.7 mphScattered Clouds
11:00 AM89.6 °F71.6 °F55 %29.89 in6.2 miESE (120°)6.9 mphPartly Cloudy
12:00 PM89.6 °F75.2 °F62 %29.86 in6.2 miESE (110°)8.1 mphPartly Cloudy
1:00 PM89.6 °F69.8 °F52 %29.83 in6.2 miEast (90°)10.4 mphPartly Cloudy
2:00 PM90.0 °F72.0 °F46 %29.82 in6.0 miESE (110°)11.2 mphScattered Clouds
2:00 PM89.6 °F71.6 °F55 %29.80 in6.2 miESE (110°)12.7 mphPartly Cloudy
3:00 PM89.6 °F69.8 °F52 %29.80 in6.2 miESE (110°)12.7 mphPartly Cloudy
4:00 PM87.8 °F71.6 °F58 %29.80 in6.2 miESE (110°)12.7 mphPartly Cloudy
5:00 PM87.0 °F70.0 °F47 %29.83 in6.0 miESE (110°)11.2 mphScattered Clouds
5:00 PM86.0 °F69.8 °F58 %29.83 in6.2 miESE (110°)10.4 mphPartly Cloudy
6:00 PM84.2 °F73.4 °F70 %29.86 in6.2 miESE (110°)9.2 mphPartly Cloudy
7:00 PM84.2 °F73.4 °F70 %29.86 in6.2 miESE (110°)6.9 mphPartly Cloudy
8:00 PM82.0 °F72.0 °F65 %29.89 in6.0 miEast (100°)4.5 mphScattered Clouds
8:00 PM82.4 °F71.6 °F70 %29.89 in6.2 miEast (100°)4.6 mphPartly Cloudy
9:00 PM82.4 °F73.4 °F74 %29.89 in6.2 miSE (130°)5.8 mphPartly Cloudy
10:00 PM80.6 °F73.4 °F79 %29.89 in6.2 miESE (120°)5.8 mphPartly Cloudy
11:00 PM81.0 °F74.0 °F73 %29.89 in6.0 miESE (110°)6.7 mphScattered Clouds
11:00 PM80.6 °F73.4 °F79 %29.89 in6.2 miESE (110°)6.9 mphPartly Cloudy
Hourly data recorded from RPLL, located miles away from Tanque, Philippines







STORIES FROM OUR PARTNERS